User: anonymous   Login
Location: Unspecified
(0.0000°N, 0.0000°E)
Time: 09:23:48
(UTC+00:00)
Language:

PRISMA (TANGO) - Orbit

View from above orbital plane
View from above orbital plane
View from above satellite
View from above satellite

Ground track
Ground track

The orbit data is extracted from the following two-line orbital elements,

1 36827U 10028F   17327.56019518 +.00000070 +00000-0 +34308-4 0  9991
2 36827 098.4790 134.7288 0041587 281.0620 078.5894 14.42306147251823
Epoch (UTC): 23 November 2017 13:26:40
Eccentricity: 0.0041587
inclination: 98.4790°
perigee height: 721 km
apogee height: 780 km
right ascension of ascending node: 134.7288°
argument of perigee: 281.0620°
revolutions per day: 14.42306147
mean anomaly at epoch: 78.5894°
orbit number at epoch: 25182

The dashed part of the orbit path shows where the satellite is in the earth's shadow,  

DLR